Theta_e
364 360 356 354 352 353 354 358 362 366 368 364 365 365 368 362 360 362 357 358 358 359
360 360 357 361 358 355 359 359 363 365 366 366 365 367 367 362 359 364 363 358 358 358
359 358 359 361 361 360 360 363 366 365 364 365 366 367 367 364 364 362 362 363 361 362
352 353 356 355 358 361 362 366 367 368 365 365 364 365 365 363 359 360 361 362 361 358
350 352 352 353 352 354 358 361 365 365 364 363 363 365 362 360 361 358 357 360 360 356
352 353 353 353 354 355 359 360 356 359 358 359 357 357 360 360 359 358 358 358 357 356
345 346 346 351 357 357 361 358 362 362 361 358 356 355 354 354 355 354 353 355 357 357
344 345 345 347 350 350 354 357 359 359 358 358 353 346 355 355 355 355 353 353 355 356
341 341 341 342 343 346 346 350 354 353 354 355 347 344 343 346 347 352 353 351 354 355
333 333 334 334 336 338 339 342 345 347 349 351 352 339 338 343 345 346 348 352 350 349
328 328 329 330 330 331 331 334 336 339 343 345 347 334 332 337 350 346 349 349 350 352
326 326 327 326 326 327 326 327 329 333 339 341 343 332 329 333 347 341 346 348 351 352
325 324 323 325 324 324 322 321 323 324 328 330 337 330 327 331 346 340 338 338 350 335
325 324 325 325 325 323 321 321 319 319 324 329 334 337 324 323 341 340 333 333 337 337
Wind_Speed
4 6 5 7 6 7 6 6 7 8 11 12 11 13 10 8 10 11 12 12 11 7
3 5 7 7 6 6 6 8 7 8 10 12 12 12 11 10 12 10 10 11 12 10
1 1 4 6 7 8 10 10 9 10 10 10 11 11 11 10 11 10 8 8 10 10
3 3 3 5 5 7 8 8 8 8 9 9 10 10 9 11 11 12 11 10 11 13
3 2 4 5 7 6 7 5 6 6 7 8 8 8 9 11 12 12 13 13 11 12
11 11 10 9 8 8 8 8 9 6 7 7 8 8 9 9 11 11 12 12 13 13
10 11 11 13 14 13 10 10 11 9 8 9 9 9 9 9 9 10 11 12 13 14
10 10 11 12 12 13 12 13 12 12 12 11 11 11 12 11 10 9 10 11 13 13
11 11 12 11 12 14 14 14 13 13 14 14 12 8 3 6 8 10 9 10 12 12
13 13 12 13 13 12 11 12 15 15 14 15 14 13 9 9 10 11 10 10 10 10
11 12 13 14 14 13 13 14 12 13 15 15 12 15 12 12 12 12 12 10 10 10
13 13 14 14 15 14 14 15 14 15 15 15 14 13 11 9 13 14 14 11 11 10
13 13 13 11 12 11 12 14 13 16 17 18 12 14 14 10 8 15 13 12 13 15
11 12 14 14 13 13 14 14 13 16 15 17 15 12 11 7 9 10 12 11 12 9
Wind_Direction
260 255 262 270 314 289 285 204 195 222 232 236 232 220 229 227 228 230 226 234 239 245
239 266 303 315 301 281 281 273 282 272 252 240 242 243 228 230 228 237 237 226 232 236
344 276 292 296 292 295 298 291 285 273 260 252 249 251 242 240 239 239 235 236 241 239
19 351 266 265 248 251 262 270 279 264 263 256 254 252 245 245 244 243 241 234 234 233
303 306 301 301 296 295 315 288 254 274 258 254 257 261 253 248 249 246 247 248 248 242
336 332 329 303 286 288 311 300 294 283 263 259 255 247 228 250 264 266 257 251 239 246
346 340 330 326 318 312 307 303 299 291 286 283 275 264 259 252 244 270 275 267 255 255
336 332 328 321 320 313 307 295 294 293 290 274 266 256 241 232 245 254 258 273 277 258
344 339 332 333 327 318 309 302 292 287 284 277 274 278 218 263 273 274 277 273 265 268
351 340 333 328 326 315 311 304 299 295 282 274 270 279 229 220 265 264 259 251 259 268
340 331 326 326 321 316 311 310 304 296 288 286 281 276 269 234 255 266 259 259 267 248
331 329 331 328 323 319 319 312 305 299 297 280 279 280 292 279 269 257 250 247 252 258
337 327 320 315 316 315 312 305 313 305 295 292 280 273 270 262 284 264 260 250 226 216
333 331 328 328 326 327 321 315 308 303 295 281 282 277 273 262 275 280 269 266 257 242